Regional Weather Roundup
Issued by NWS

Home | Current Version | Previous Version | Graphics & Text | Print | Product List | Glossary On
Versions: 1 2 3 4 5 6 7 8 9 10 11 12 13 14 15 16 17 18 19 20 21 22 23 24 25 26 27 28 29 30 31 32 33 34 35 36 37 38 39 40 41 42 43 44 45 46 47 48 49 50
009
ASUS43 KFSD 010710
RWRSD

WEATHER ROUNDUP FOR SOUTH DAKOTA
NATIONAL WEATHER SERVICE SIOUX FALLS SD
200 AM CDT SAT OCT 01 2016

NOTE: "FAIR" INDICATES FEW OR NO CLOUDS BELOW 12,000 FEET WITH NO
SIGNIFICANT WEATHER AND/OR OBSTRUCTIONS TO VISIBILITY.


SDZ001>005-009-010-012>017-010800-
NORTHWEST AND NORTH CENTRAL SOUTH DAKOTA

CITY           SKY/WX    TMP DP  RH WIND       PRES   REMARKS
BUFFALO          N/A     59  47  64 CALM      29.95S
FAITH            N/A     57  47  69 SE14      30.01S
MOBRIDGE       CLOUDY    60  44  55 SE15      30.04F
$$

SDZ012>016-024>037-041>051-057-063-072>074-010800-
SOUTHWEST AND SOUTH CENTRAL SOUTH DAKOTA

CITY           SKY/WX    TMP DP  RH WIND       PRES   REMARKS
RAPID CTY ARPT CLEAR     52  47  83 SE5       30.03S
PIERRE         CLOUDY    60  44  55 SE15      30.06R
CUSTER         CLEAR     49  42  77 NW5       30.15F
ELLSWORTH AFB  CLEAR     57  50  77 SW5       30.01F
PHILIP         PTCLDY    59  48  67 SE7       30.02S
PINE RIDGE     CLOUDY    63  48  58 S14G23    30.07S
WINNER         FAIR      60  44  55 S15       30.10S
$$

SDZ004>011-016>023-039-040-010800-
NORTHEAST SOUTH DAKOTA

CITY           SKY/WX    TMP DP  RH WIND       PRES   REMARKS
ABERDEEN       PTCLDY    56  45  66 SE12      30.13S
WATERTOWN      PTCLDY    55  47  74 SE6       30.18S
BROOKINGS      PTCLDY    52  48  86 SE6       30.18S
SISSETON         N/A     48  44  86 S3        30.17F
$$

SDZ017-020-022-023-036>040-048>070-010800-
SOUTHEAST SOUTH DAKOTA

CITY           SKY/WX    TMP DP  RH WIND       PRES   REMARKS
SIOUX FALLS    CLOUDY    50  47  89 NE5       30.18S
HURON          PTCLDY    50  45  83 S7        30.14S
CHAMBERLAIN    CLOUDY    55  49  79 SE6       30.12S
MITCHELL       PTCLDY    50  45  83 S6        30.16R
YANKTON        PTCLDY    52  46  82 E6        30.15S
$$

ABBREVIATIONS USED IN REMARKS
   TC - TEMPERATURE IN CELSIUS
  WCI - WIND CHILL INDEX
   HX - HEAT INDEX
  VSB - VISIBILITY





USA.gov is the U.S. government's official web portal to all federal, state and local government web resources and services.